sat.trackr.live / text

‹ back to catalog

STARLINK-30501

NORAD 57917 · 2023-147E

PAYLOAD ACTIVE UNKNOWN

§ Identity

Operator
Country
US
Launch date
2023-09-24
Launch site
AFETR
Launch vehicle
Mass (kg)
RCS (m²)

Purposes: comms

External: N2YO · Heavens-Above · Gunter

§ Orbital elements

Epoch: 2026-05-25T03:38:45.392064Z

Period
94.27 min
Inclination
43.0081°
Eccentricity
0.0002791
Mean motion
15.27493998 rev/d
Perigee alt
481.4 km
Apogee alt
485.2 km
Semi-major
6,861.4 km
B*
-8.0019e-3
RAAN
253.2431°
Arg perigee
261.3944°
Mean anomaly
98.6592°
Rev number
14,831

§ Raw data

STARLINK-305011 57917U 23147E   26145.15191426 -.00213697  00000+0 -80019-2 0  99922 57917  43.0081 253.2431 0002791 261.3944  98.6592 15.27493998148318

JSON: /api/v1/satellites/57917 · /tle

For live sub-satellite position, see the globe view (requires WebGL).

§ Visibility from observer

Set your observer location to see the next 7 days of passes ≥ 10°. The values pass through the URL so the page stays shareable.

No JS? Fill the form by hand. The geolocation button needs JavaScript.